Other Public Products
Issued by NWS Charleston, SC

Current Version | Previous Version | Graphics & Text | Print | Product List | Glossary On
Versions: 1 2 3 4 5 6 7 8 9 10 11 12 13 14 15 16 17 18 19 20 21 22 23 24 25 26 27 28 29 30 31 32 33 34 35 36 37 38 39 40 41 42 43 44 45 46 47 48 49 50
286
FPUS82 KCHS 201927
OPUCHS

TEST...KCHS/KSAV Gateway Observations...TEST
National Weather Service Charleston SC
300 PM EDT SUN MAY 20 2018

NOTE: "fair" indicates few or no clouds below 12,000 feet with no
significant weather and/or obstructions to visibility.

SCZ050-WAZ558-NCZ071-TXZ119-213-PAZ071-DCZ001-FLZ074-172-MI076-
NYZ176-178-MAZ016-IL014-TNZ027-NJZ106-GAZ044-MD014-202000-

...Gateway Observations for Charleston International...

CITY           SKY/WX    TMP DP  RH WIND       PRES   REMARKS
Chas Airport   PTSUNNY   79  71  76 W3        30.16S
Seattle        CLOUDY    61  52  72 SW6       30.07R
Charlotte      PTSUNNY   84  71  65 S7        30.13F
Dallas DFW     PTSUNNY   74  67  78 SE14      29.98F
Dallas Love    CLOUDY    74  68  81 SE15      29.99F
Philladelphia  PTSUNNY   81  64  56 NW12G22   29.98S
Wash National  PTSUNNY   85  65  51 W14       30.01S
Baltimore      PTSUNNY   86  67  52 SW15      29.99F
Miami          CLOUDY    79  73  82 E17G23    30.06S
Detroit        CLOUDY    66  54  65 E6        30.16F
Newark         PTSUNNY   84  64  50 W16       29.93S
Laguardia      PTSUNNY   81  62  52 W10G21    29.92S
J F K          PTSUNNY   82  65  56 W17       29.93S
Boston Logan   CLOUDY    79  65  62 W14G22    29.83R
Ft. Lauderdale CLOUDY    80  75  84 SE17      30.05F
Chicago O`Hare CLOUDY    47  43  86 N14       30.20F
Chicago Midway CLOUDY    50  47  89 N9        30.20S
Houston Bush   TSTM      77  73  87 SE15G29   29.97S FOG
Houston Hobby  PTSUNNY   89  74  60 SE15G23   29.96F HX  98
Nashville      PTSUNNY   91  64  40 NE6       30.10F HX  92
Atlanta        PTSUNNY   85  69  58 S9        30.12F

$$

GAZ044-118-TXZ119-213-NCZ071-DCZ001-MDZ014-506-PAZ021-071-NJZ106-
NYZ176-178-MAZ106-OHZ011-021-055-MIZ076-KYZ091-ILZ014-INZ047-
MNZ060-ONZ431-202000-

...Gateway Observations for Savannah International...

CITY           SKY/WX    TMP DP  RH WIND       PRES   REMARKS
Savannah Arpt  LGT RAIN  78  70  76 W6        30.16F
Atlanta        PTSUNNY   85  69  58 S9        30.12F
Charlotte      PTSUNNY   84  71  65 S7        30.13F
Dallas DFW     PTSUNNY   74  67  78 SE14      29.98F
Houston Bush   TSTM      77  73  87 SE15G29   29.97S FOG
Wash National  PTSUNNY   85  65  51 W14       30.01S
Wash Dulles    PTSUNNY   85  65  51 W10       30.02S
Baltimore      PTSUNNY   86  67  52 SW15      29.99F
Philadelphia   PTSUNNY   81  64  56 NW12G22   29.98S
Newark         PTSUNNY   84  64  50 W16       29.93S
Laguardia      PTSUNNY   81  62  52 W10G21    29.92S
J F K          PTSUNNY   82  65  56 W17       29.93S
Boston         CLOUDY    79  65  62 W14G22    29.83R
Pittsburg      PTSUNNY   72  61  68 NW14      30.12R
Akron          CLOUDY    68  57  68 N8        30.15S
Cleveland      PTSUNNY   59  52  77 NE5       30.19F
Cincinnati     FAIR      83  62  49 VRB5      30.10F
Columbus       FAIR      76  61  59 MISG      30.11F
Detroit        CLOUDY    66  54  65 E6        30.16F
Chicago O`Hare CLOUDY    47  43  86 N14       30.20F
Minneapolis    FAIR      68  38  33 NE6       30.21F
Indianapolis   FAIR      83  64  52 SW7       30.07F
Toronto Canada PTSUNNY   66  50  55 N12       30.09S

$$




USA.gov is the U.S. government's official web portal to all federal, state and local government web resources and services.